Change the Weather History Date:

Monday, October 10, 2011

  Actual Average Record
Temperature  
Mean Temperature 59 °F 60 °F  
Max Temperature 71 °F 71 °F 95 °F (1963)
Min Temperature 47 °F 48 °F 19 °F (1906)
Degree Days  
Heating Degree Days 6 7  
Month to date heating degree days 18 58  
Since 1 July heating degree days 77 110  
Cooling Degree Days 0 1  
Month to date cooling degree days 43 21  
Year to date cooling degree days 2001 1633  
Growing Degree Days 10 (Base 50)    
Moisture  
Dew Point 52 °F    
Average Humidity 77    
Maximum Humidity 100    
Minimum Humidity 53    
Precipitation  
Precipitation 0.01 in 0.08 in 2.80 in (1973)
Month to date precipitation 0.70 0.83  
Year to date precipitation 16.84 27.87  
Sea Level Pressure  
Sea Level Pressure 30.04 in    
Wind  
Wind Speed 5 mph (SSW)    
Max Wind Speed 14 mph    
Max Gust Speed 17 mph    
Visibility 7 miles    
Events Fog , Rain    
T = Trace of Precipitation, MM = Missing Value Source: NWS Daily Summary

Daily Weather History Graph

Daily Weather History Graph

Search for Another Location

Airport or City:

Trip Planner

Search our weather history database for the weather conditions in past years. The results will help you decide how hot, cold, wet, or windy it might be!

Date:

Astronomy

Oct. 10, 2011 Rise Set
Actual Time 7:34 AM CDT 6:59 PM CDT
Civil Twilight 7:08 AM CDT 7:26 PM CDT
Nautical Twilight 6:37 AM CDT 7:57 PM CDT
Astronomical Twilight 6:06 AM CDT 8:28 PM CDT
Moon 6:04 PM CDT (10/10) 6:17 AM CDT (10/10)
Length of Visible Light 12h 18m
Length of Day
11h 25m
Waxing Gibbous, 98% of the Moon is Illuminated
Oct 10
Waxing Gibbous
Oct 11
Full
Oct 19
Last Quarter
Oct 26
New
Nov 2
First Quarter

Hourly Weather History & Observations

Time (CDT) Temp. Dew Point Humidity Pressure Visibility Wind Dir Wind Speed Gust Speed Precip Events Conditions
12:20 AM 55.4 °F 53.6 °F 94% 30.08 in 10.0 mi Calm Calm - 0.01 in Rain Light Rain
12:53 AM 55.9 °F 54.0 °F 93% 30.06 in 10.0 mi NNW 3.5 mph - 0.01 in   Overcast
1:13 AM 55.4 °F 53.6 °F 94% 30.07 in 10.0 mi North 4.6 mph - N/A   Overcast
1:53 AM 55.0 °F 54.0 °F 96% 30.05 in 10.0 mi NE 3.5 mph - 0.00 in   Overcast
2:34 AM 55.4 °F 53.6 °F 94% 30.06 in 10.0 mi North 3.5 mph - 0.01 in   Overcast
2:53 AM 55.9 °F 54.0 °F 93% 30.06 in 10.0 mi NW 5.8 mph - 0.01 in   Overcast
3:44 AM 55.4 °F 53.6 °F 94% 30.06 in 10.0 mi Calm Calm - N/A   Overcast
3:53 AM 55.9 °F 54.0 °F 93% 30.06 in 10.0 mi Calm Calm - N/A   Overcast
4:53 AM 55.0 °F 54.0 °F 96% 30.06 in 10.0 mi West 3.5 mph - N/A   Overcast
5:20 AM 53.6 °F 53.6 °F 100% 30.07 in 10.0 mi West 5.8 mph - N/A   Mostly Cloudy
5:23 AM 53.6 °F 51.8 °F 94% 30.07 in 4.0 mi WNW 4.6 mph - N/A   Scattered Clouds
5:25 AM 51.8 °F 51.8 °F 100% 30.07 in 1.8 mi WNW 4.6 mph - N/A   Mostly Cloudy
5:32 AM 51.8 °F 51.8 °F 100% 30.07 in 0.5 mi West 5.8 mph - N/A Fog Fog
5:39 AM 51.8 °F 51.8 °F 100% 30.07 in 0.2 mi West 3.5 mph - N/A Fog Fog
5:53 AM 51.1 °F 51.1 °F 100% 30.07 in 0.5 mi SW 3.5 mph - N/A Fog Fog
6:10 AM 50.0 °F 48.2 °F 94% 30.07 in 2.5 mi WSW 4.6 mph - N/A   Mostly Cloudy
6:15 AM 50.0 °F 48.2 °F 94% 30.07 in 8.0 mi WSW 4.6 mph - N/A   Scattered Clouds
6:53 AM 48.9 °F 48.9 °F 100% 30.07 in 3.0 mi Calm Calm - N/A   Clear
6:59 AM 48.2 °F 48.2 °F 100% 30.07 in 0.5 mi Calm Calm - N/A Fog Overcast
7:41 AM 48.2 °F 48.2 °F 100% 30.07 in 0.5 mi Calm Calm - 0.00 in Fog Fog
7:53 AM 48.2 °F 48.2 °F 100% 30.07 in 0.5 mi Calm Calm - N/A Fog Fog
8:07 AM 48.2 °F 46.4 °F 93% 30.08 in 0.5 mi Calm Calm - N/A Fog Fog
8:22 AM 48.2 °F 48.2 °F 100% 30.08 in 0.5 mi Calm Calm - N/A Fog Fog
8:53 AM 48.9 °F 48.9 °F 100% 30.09 in 0.5 mi SE 3.5 mph - N/A Fog Fog
9:53 AM 52.0 °F 52.0 °F 100% 30.09 in 0.5 mi Calm Calm - N/A Fog Fog
9:59 AM 51.8 °F 51.8 °F 100% 30.09 in 2.0 mi Calm Calm - N/A Fog Fog
10:08 AM 53.6 °F 53.6 °F 100% 30.09 in 9.0 mi SSW 3.5 mph - N/A   Mostly Cloudy
10:16 AM 53.6 °F 53.6 °F 100% 30.09 in 10.0 mi South 3.5 mph - N/A   Scattered Clouds
10:53 AM 57.0 °F 54.0 °F 89% 30.09 in 10.0 mi Calm Calm - N/A   Scattered Clouds
11:53 AM 63.0 °F 54.0 °F 72% 30.07 in 10.0 mi SSE 5.8 mph - N/A   Scattered Clouds
12:53 PM 64.9 °F 54.0 °F 68% 30.04 in 10.0 mi Variable 6.9 mph - N/A   Clear
1:53 PM 66.9 °F 53.1 °F 61% 30.01 in 10.0 mi South 6.9 mph - N/A   Clear
2:53 PM 69.8 °F 51.8 °F 53% 30.00 in 10.0 mi SSE 10.4 mph - N/A   Clear
3:53 PM 71.1 °F 53.1 °F 53% 29.96 in 10.0 mi South 9.2 mph - N/A   Clear
4:53 PM 70.0 °F 52.0 °F 53% 29.95 in 10.0 mi South 9.2 mph - N/A   Clear
5:53 PM 69.1 °F 51.1 °F 53% 29.94 in 10.0 mi South 10.4 mph - N/A   Clear
6:53 PM 64.4 °F 51.8 °F 64% 29.95 in 10.0 mi South 8.1 mph - N/A   Clear
7:53 PM 60.1 °F 53.1 °F 78% 29.95 in 10.0 mi SSE 6.9 mph - N/A   Clear
8:53 PM 57.0 °F 53.1 °F 87% 29.96 in 10.0 mi SSE 5.8 mph - N/A   Clear
9:53 PM 57.0 °F 53.1 °F 87% 29.96 in 10.0 mi SSE 3.5 mph - N/A   Mostly Cloudy
10:53 PM 55.9 °F 52.0 °F 87% 29.96 in 10.0 mi Calm Calm - N/A   Clear
11:53 PM 54.0 °F 52.0 °F 93% 29.95 in 10.0 mi SE 6.9 mph - N/A   Partly Cloudy